User: anonymous   Login
Location: Unspecified
(0.0000°N, 0.0000°E)
Time: 09:42:26
(UTC+00:00)
Language:

Cosmos 1410 - Orbit

View from above orbital plane
View from above orbital plane
View from above satellite
View from above satellite

Ground track
Ground track

The orbit data is extracted from the following two-line orbital elements,

1 13589U 82096A   18014.91297253 +.00000032 +00000-0 +15724-3 0  9990
2 13589 082.6076 194.8219 0006443 180.1599 293.9232 12.42304063602093
Epoch (UTC): 14 January 2018 21:54:40
Eccentricity: 0.0006443
inclination: 82.6076°
perigee height: 1492 km
apogee height: 1502 km
right ascension of ascending node: 194.8219°
argument of perigee: 180.1599°
revolutions per day: 12.42304063
mean anomaly at epoch: 293.9232°
orbit number at epoch: 60209

The dashed part of the orbit path shows where the satellite is in the earth's shadow,  

DLR